Time,TemperatureF,DewpointF,PressureIn,WindDirection,WindDirectionDegrees,WindSpeedMPH,WindSpeedGustMPH,Humidity,HourlyPrecipIn,Conditions,Clouds,dailyrainin,SoftwareType,DateUTC
2013-04-30 00:01:00,55.0,51.2,29.83,SSW,200,0.0,0.0,87,0.00,CLR,OVC,0.00,WeatherDisplay:10.37,2013-04-30 04:01:00,
2013-04-30 00:06:00,54.9,51.1,29.83,SSW,200,0.0,0.0,87,0.00,CLR,OVC,0.00,WeatherDisplay:10.37,2013-04-30 04:06:00,
2013-04-30 00:11:00,54.7,50.9,29.83,SSW,200,0.0,0.0,87,0.00,CLR,OVC,0.00,WeatherDisplay:10.37,2013-04-30 04:11:00,
2013-04-30 00:16:00,54.7,50.9,29.83,SSW,200,0.0,0.0,87,0.00,CLR,OVC,0.00,WeatherDisplay:10.37,2013-04-30 04:16:00,
2013-04-30 00:21:00,54.5,50.7,29.83,SSW,200,0.0,0.0,87,0.00,CLR,OVC,0.00,WeatherDisplay:10.37,2013-04-30 04:21:00,
2013-04-30 00:26:00,54.5,50.7,29.83,SSW,200,0.0,0.0,87,0.00,CLR,OVC,0.00,WeatherDisplay:10.37,2013-04-30 04:26:00,
2013-04-30 00:31:00,54.3,50.5,29.83,SSW,200,0.0,0.0,87,0.00,CLR,OVC,0.00,WeatherDisplay:10.37,2013-04-30 04:31:00,
2013-04-30 00:36:00,54.3,50.5,29.83,SSW,200,0.0,0.0,87,0.00,CLR,OVC,0.00,WeatherDisplay:10.37,2013-04-30 04:36:00,
2013-04-30 00:41:00,54.1,50.4,29.83,SSW,200,0.0,0.0,87,0.00,CLR,OVC,0.00,WeatherDisplay:10.37,2013-04-30 04:41:00,
2013-04-30 00:46:00,54.1,50.4,29.83,SSW,200,0.0,0.0,87,0.00,CLR,OVC,0.00,WeatherDisplay:10.37,2013-04-30 04:46:00,
2013-04-30 00:51:00,54.0,50.5,29.83,SSW,200,0.0,0.0,88,0.00,CLR,OVC,0.00,WeatherDisplay:10.37,2013-04-30 04:51:00,
2013-04-30 00:56:00,53.8,50.3,29.83,SSW,200,0.0,0.0,88,0.00,CLR,OVC,0.00,WeatherDisplay:10.37,2013-04-30 04:56:00,
2013-04-30 01:01:00,53.8,50.3,29.83,SSW,200,0.0,0.0,88,0.00,CLR,OVC,0.00,WeatherDisplay:10.37,2013-04-30 05:01:00,
2013-04-30 01:06:00,53.8,50.3,29.83,SSW,200,0.0,0.0,88,0.00,CLR,OVC,0.00,WeatherDisplay:10.37,2013-04-30 05:06:00,
2013-04-30 01:11:00,53.6,50.1,29.83,SSW,200,0.0,0.0,88,0.00,CLR,OVC,0.00,WeatherDisplay:10.37,2013-04-30 05:11:00,
2013-04-30 01:16:00,53.4,50.0,29.83,SSW,200,0.0,0.0,88,0.00,CLR,OVC,0.00,WeatherDisplay:10.37,2013-04-30 05:16:00,
2013-04-30 01:21:00,53.4,50.0,29.82,SSW,200,0.0,0.0,88,0.00,CLR,OVC,0.00,WeatherDisplay:10.37,2013-04-30 05:21:00,
2013-04-30 01:26:00,53.2,49.8,29.82,SSW,200,0.0,0.0,88,0.00,CLR,OVC,0.00,WeatherDisplay:10.37,2013-04-30 05:26:00,
2013-04-30 01:31:00,53.2,49.8,29.82,SSW,200,0.0,0.0,88,0.00,CLR,OVC,0.00,WeatherDisplay:10.37,2013-04-30 05:31:00,
2013-04-30 01:36:00,53.2,49.8,29.82,SSW,200,0.0,0.0,88,0.00,CLR,OVC,0.00,WeatherDisplay:10.37,2013-04-30 05:36:00,
2013-04-30 01:41:00,52.9,49.4,29.82,SSW,200,0.0,0.0,88,0.00,CLR,OVC,0.00,WeatherDisplay:10.37,2013-04-30 05:41:00,
2013-04-30 01:46:00,52.9,49.4,29.82,SSW,200,0.0,0.0,88,0.00,CLR,OVC,0.00,WeatherDisplay:10.37,2013-04-30 05:46:00,
2013-04-30 01:51:00,52.7,49.2,29.82,SSW,200,0.0,0.0,88,0.00,CLR,OVC,0.00,WeatherDisplay:10.37,2013-04-30 05:51:00,
2013-04-30 01:56:00,52.7,49.2,29.82,SSW,200,0.0,0.0,88,0.00,CLR,OVC,0.00,WeatherDisplay:10.37,2013-04-30 05:56:00,
2013-04-30 02:01:00,52.7,49.2,29.81,SSW,200,0.0,0.0,88,0.00,CLR,OVC,0.00,WeatherDisplay:10.37,2013-04-30 06:01:00,
2013-04-30 02:06:00,52.5,49.1,29.81,SSW,200,0.0,0.0,88,0.00,CLR,OVC,0.00,WeatherDisplay:10.37,2013-04-30 06:06:00,
2013-04-30 02:11:00,52.5,49.1,29.81,SSW,200,0.0,0.0,88,0.00,CLR,OVC,0.00,WeatherDisplay:10.37,2013-04-30 06:11:00,
2013-04-30 02:16:00,52.3,49.2,29.81,SSW,200,0.0,0.0,89,0.00,CLR,OVC,0.00,WeatherDisplay:10.37,2013-04-30 06:16:00,
2013-04-30 02:21:00,52.3,49.2,29.81,SSW,200,0.0,0.0,89,0.00,CLR,OVC,0.00,WeatherDisplay:10.37,2013-04-30 06:21:00,
2013-04-30 02:26:00,52.3,49.2,29.81,SSW,200,0.0,0.0,89,0.00,CLR,OVC,0.00,WeatherDisplay:10.37,2013-04-30 06:26:00,
2013-04-30 02:31:00,52.3,49.2,29.81,SSW,200,0.0,0.0,89,0.00,CLR,OVC,0.00,WeatherDisplay:10.37,2013-04-30 06:31:00,
2013-04-30 02:36:00,52.2,49.0,29.81,SSW,200,0.0,0.0,89,0.00,CLR,OVC,0.00,WeatherDisplay:10.37,2013-04-30 06:36:00,
2013-04-30 02:41:00,52.2,49.0,29.81,SSW,200,0.0,0.0,89,0.00,CLR,OVC,0.00,WeatherDisplay:10.37,2013-04-30 06:41:00,
2013-04-30 02:46:00,52.2,49.0,29.81,SSW,200,0.0,0.0,89,0.00,CLR,OVC,0.00,WeatherDisplay:10.37,2013-04-30 06:46:00,
2013-04-30 02:51:00,52.2,49.0,29.81,SSW,200,0.0,0.0,89,0.00,CLR,OVC,0.00,WeatherDisplay:10.37,2013-04-30 06:51:00,
2013-04-30 02:56:00,52.0,48.8,29.81,SSW,200,0.0,0.0,89,0.00,CLR,OVC,0.00,WeatherDisplay:10.37,2013-04-30 06:56:00,
2013-04-30 03:01:00,52.0,48.8,29.81,SSW,200,0.0,0.0,89,0.00,CLR,OVC,0.00,WeatherDisplay:10.37,2013-04-30 07:01:00,
2013-04-30 03:06:00,52.0,48.8,29.81,SSW,200,0.0,0.0,89,0.00,CLR,OVC,0.00,WeatherDisplay:10.37,2013-04-30 07:06:00,
2013-04-30 03:11:00,51.8,48.7,29.81,SSW,200,0.0,0.0,89,0.00,CLR,OVC,0.00,WeatherDisplay:10.37,2013-04-30 07:11:00,
2013-04-30 03:16:00,51.8,48.7,29.81,SSW,200,0.0,0.0,89,0.00,CLR,OVC,0.00,WeatherDisplay:10.37,2013-04-30 07:16:00,
2013-04-30 03:21:00,51.6,48.5,29.81,SSW,200,0.0,0.0,89,0.00,CLR,OVC,0.00,WeatherDisplay:10.37,2013-04-30 07:21:00,
2013-04-30 03:26:00,51.6,48.5,29.81,SSW,200,0.0,0.0,89,0.00,CLR,OVC,0.00,WeatherDisplay:10.37,2013-04-30 07:26:00,
2013-04-30 03:31:00,51.6,48.5,29.82,SSW,200,0.0,0.0,89,0.00,CLR,OVC,0.00,WeatherDisplay:10.37,2013-04-30 07:31:00,
2013-04-30 03:36:00,51.6,48.5,29.82,SSW,200,0.0,0.0,89,0.00,CLR,OVC,0.00,WeatherDisplay:10.37,2013-04-30 07:36:00,
2013-04-30 03:41:00,51.4,48.3,29.82,SSW,200,0.0,0.0,89,0.00,CLR,OVC,0.00,WeatherDisplay:10.37,2013-04-30 07:41:00,
2013-04-30 03:46:00,51.3,48.4,29.83,SSW,200,0.0,0.0,90,0.00,CLR,OVC,0.00,WeatherDisplay:10.37,2013-04-30 07:46:00,
2013-04-30 03:51:00,51.3,48.4,29.83,SSW,200,0.0,0.0,90,0.00,CLR,OVC,0.00,WeatherDisplay:10.37,2013-04-30 07:51:00,
2013-04-30 03:56:00,51.3,48.4,29.83,SSW,200,0.0,0.0,90,0.00,CLR,OVC,0.00,WeatherDisplay:10.37,2013-04-30 07:56:00,
2013-04-30 04:01:00,51.3,48.4,29.83,SSW,200,0.0,0.0,90,0.00,CLR,OVC,0.00,WeatherDisplay:10.37,2013-04-30 08:01:00,
2013-04-30 04:06:00,51.1,48.0,29.83,SSW,200,0.0,0.0,89,0.00,CLR,OVC,0.00,WeatherDisplay:10.37,2013-04-30 08:06:00,
2013-04-30 04:11:00,51.1,48.2,29.83,SSW,200,0.0,0.0,90,0.00,CLR,OVC,0.00,WeatherDisplay:10.37,2013-04-30 08:11:00,
2013-04-30 04:16:00,50.9,48.1,29.83,SSW,200,0.0,0.0,90,0.00,CLR,OVC,0.00,WeatherDisplay:10.37,2013-04-30 08:16:00,
2013-04-30 04:21:00,50.9,48.1,29.83,SSW,200,0.0,0.0,90,0.00,CLR,OVC,0.00,WeatherDisplay:10.37,2013-04-30 08:21:00,
2013-04-30 04:26:00,50.7,47.9,29.83,SSW,200,0.0,0.0,90,0.00,CLR,OVC,0.00,WeatherDisplay:10.37,2013-04-30 08:26:00,
2013-04-30 04:31:00,50.7,47.9,29.83,SSW,200,0.0,0.0,90,0.00,CLR,OVC,0.00,WeatherDisplay:10.37,2013-04-30 08:31:00,
2013-04-30 04:36:00,50.7,47.9,29.83,SSW,200,0.0,0.0,90,0.00,CLR,OVC,0.00,WeatherDisplay:10.37,2013-04-30 08:36:00,
2013-04-30 04:41:00,50.7,47.9,29.83,SSW,200,0.0,0.0,90,0.00,CLR,OVC,0.00,WeatherDisplay:10.37,2013-04-30 08:41:00,
2013-04-30 04:46:00,50.7,47.9,29.83,SSW,200,0.0,0.0,90,0.00,BKN,OVC,0.00,WeatherDisplay:10.37,2013-04-30 08:46:00,
2013-04-30 04:51:00,50.7,47.9,29.83,SSW,200,0.0,0.0,90,0.00,BKN,OVC,0.00,WeatherDisplay:10.37,2013-04-30 08:51:00,
2013-04-30 04:56:00,50.5,47.7,29.83,SSW,200,0.0,0.0,90,0.00,BKN,OVC,0.00,WeatherDisplay:10.37,2013-04-30 08:56:00,
2013-04-30 05:01:00,50.5,47.7,29.85,SSW,200,0.0,0.0,90,0.00,BKN,OVC,0.00,WeatherDisplay:10.37,2013-04-30 09:01:00,
2013-04-30 05:06:00,50.5,47.7,29.85,SSW,200,0.0,0.0,90,0.00,BKN,OVC,0.00,WeatherDisplay:10.37,2013-04-30 09:06:00,
2013-04-30 05:11:00,50.7,47.9,29.85,SSW,200,0.0,0.0,90,0.00,BKN,OVC,0.00,WeatherDisplay:10.37,2013-04-30 09:11:00,
2013-04-30 05:16:00,50.7,48.2,29.85,NNE,30,0.0,3.5,91,0.00,OVC,,0.00,WeatherDisplay:10.37,2013-04-30 09:16:00,
2013-04-30 05:21:00,50.7,48.2,29.85,NNE,30,3.5,3.5,91,0.00,OVC,,0.00,WeatherDisplay:10.37,2013-04-30 09:21:00,
2013-04-30 05:26:00,50.9,48.4,29.85,NNE,30,3.5,3.5,91,0.00,OVC,,0.00,WeatherDisplay:10.37,2013-04-30 09:26:00,
2013-04-30 05:31:00,50.9,48.4,29.84,NNE,30,3.5,3.5,91,0.00,OVC,,0.00,WeatherDisplay:10.37,2013-04-30 09:31:00,
2013-04-30 05:36:00,51.1,48.5,29.84,NNE,30,3.5,3.5,91,0.00,OVC,,0.00,WeatherDisplay:10.37,2013-04-30 09:36:00,
2013-04-30 05:41:00,51.1,48.5,29.84,NNE,30,3.5,3.5,91,0.00,OVC,,0.00,WeatherDisplay:10.37,2013-04-30 09:41:00,
2013-04-30 05:46:00,51.1,48.5,29.84,NE,40,3.5,3.5,91,0.00,OVC,,0.00,WeatherDisplay:10.37,2013-04-30 09:46:00,
2013-04-30 05:51:00,51.4,48.9,29.84,NE,40,3.5,3.5,91,0.00,OVC,,0.00,WeatherDisplay:10.37,2013-04-30 09:51:00,
2013-04-30 05:56:00,51.4,48.9,29.84,NE,40,3.5,3.5,91,0.00,OVC,,0.00,WeatherDisplay:10.37,2013-04-30 09:56:00,
2013-04-30 06:01:00,51.4,48.9,29.84,NE,40,3.5,3.5,91,0.00,OVC,,0.00,WeatherDisplay:10.37,2013-04-30 10:01:00,
2013-04-30 06:06:00,51.4,48.9,29.85,NE,40,3.5,3.5,91,0.00,OVC,,0.00,WeatherDisplay:10.37,2013-04-30 10:06:00,
2013-04-30 06:11:00,51.4,48.9,29.85,NE,40,3.5,3.5,91,0.00,OVC,,0.00,WeatherDisplay:10.37,2013-04-30 10:11:00,
2013-04-30 06:16:00,51.4,48.9,29.85,NE,40,3.5,3.5,91,0.00,OVC,,0.00,WeatherDisplay:10.37,2013-04-30 10:16:00,
2013-04-30 06:21:00,51.6,49.4,29.85,NE,40,3.5,3.5,92,0.00,OVC,,0.00,WeatherDisplay:10.37,2013-04-30 10:21:00,
2013-04-30 06:26:00,51.6,49.4,29.86,NE,40,3.5,3.5,92,0.00,OVC,,0.00,WeatherDisplay:10.37,2013-04-30 10:26:00,
2013-04-30 06:31:00,51.6,49.4,29.86,NE,40,3.5,3.5,92,0.00,OVC,,0.00,WeatherDisplay:10.37,2013-04-30 10:31:00,
2013-04-30 06:36:00,51.8,49.5,29.86,NE,40,3.5,3.5,92,0.00,OVC,,0.00,WeatherDisplay:10.37,2013-04-30 10:36:00,
2013-04-30 06:41:00,52.0,49.7,29.86,NE,40,3.5,3.5,92,0.00,OVC,,0.00,WeatherDisplay:10.37,2013-04-30 10:41:00,
2013-04-30 06:46:00,52.0,49.7,29.87,NE,40,4.6,4.6,92,0.00,OVC,,0.00,WeatherDisplay:10.37,2013-04-30 10:46:00,
2013-04-30 06:51:00,52.0,49.7,29.87,NE,40,4.6,4.6,92,0.00,OVC,,0.00,WeatherDisplay:10.37,2013-04-30 10:51:00,
2013-04-30 06:56:00,52.2,49.9,29.87,NE,40,4.6,4.6,92,0.00,OVC,,0.00,WeatherDisplay:10.37,2013-04-30 10:56:00,
2013-04-30 07:01:00,52.3,50.1,29.87,NE,40,4.6,4.6,92,0.00,OVC,,0.00,WeatherDisplay:10.37,2013-04-30 11:01:00,
2013-04-30 07:06:00,52.3,50.1,29.87,NE,40,4.6,4.6,92,0.00,OVC,,0.00,WeatherDisplay:10.37,2013-04-30 11:06:00,
2013-04-30 07:11:00,52.5,50.6,29.87,NE,40,4.6,4.6,93,0.00,OVC,,0.00,WeatherDisplay:10.37,2013-04-30 11:11:00,
2013-04-30 07:16:00,52.5,50.6,29.87,NNE,30,4.6,4.6,93,0.00,OVC,,0.00,WeatherDisplay:10.37,2013-04-30 11:16:00,
2013-04-30 07:21:00,52.9,50.9,29.88,NNE,30,3.5,3.5,93,0.00,OVC,,0.00,WeatherDisplay:10.37,2013-04-30 11:21:00,
2013-04-30 07:26:00,52.9,50.9,29.88,NNE,30,3.5,3.5,93,0.00,OVC,,0.00,WeatherDisplay:10.37,2013-04-30 11:26:00,
2013-04-30 07:31:00,52.9,50.6,29.88,NNE,30,3.5,3.5,92,0.00,OVC,,0.00,WeatherDisplay:10.37,2013-04-30 11:31:00,
2013-04-30 07:36:00,52.9,50.9,29.89,NNE,30,3.5,3.5,93,0.00,OVC,,0.00,WeatherDisplay:10.37,2013-04-30 11:36:00,
2013-04-30 07:41:00,53.2,51.3,29.89,NNE,30,3.5,3.5,93,0.00,OVC,,0.00,WeatherDisplay:10.37,2013-04-30 11:41:00,
2013-04-30 07:46:00,53.2,51.3,29.89,NE,40,3.5,3.5,93,0.00,OVC,,0.00,WeatherDisplay:10.37,2013-04-30 11:46:00,
2013-04-30 07:51:00,53.4,51.4,29.89,NE,40,3.5,3.5,93,0.00,OVC,,0.00,WeatherDisplay:10.37,2013-04-30 11:51:00,
2013-04-30 07:56:00,53.4,51.4,29.89,NE,40,3.5,3.5,93,0.00,OVC,,0.00,WeatherDisplay:10.37,2013-04-30 11:56:00,
2013-04-30 08:01:00,53.4,51.4,29.89,NE,40,3.5,3.5,93,0.00,OVC,,0.00,WeatherDisplay:10.37,2013-04-30 12:01:00,
2013-04-30 08:06:00,53.8,51.8,29.90,NE,40,3.5,3.5,93,0.00,OVC,,0.00,WeatherDisplay:10.37,2013-04-30 12:06:00,
2013-04-30 08:11:00,54.0,52.0,29.90,NE,40,3.5,3.5,93,0.00,OVC,,0.00,WeatherDisplay:10.37,2013-04-30 12:11:00,
2013-04-30 08:16:00,54.0,52.0,29.90,NNE,30,4.6,4.6,93,0.00,OVC,,0.00,WeatherDisplay:10.37,2013-04-30 12:16:00,
2013-04-30 08:21:00,54.1,52.2,29.90,NNE,30,4.6,4.6,93,0.00,OVC,,0.00,WeatherDisplay:10.37,2013-04-30 12:21:00,
2013-04-30 08:26:00,54.3,52.3,29.89,NNE,30,4.6,4.6,93,0.00,OVC,,0.00,WeatherDisplay:10.37,2013-04-30 12:26:00,
2013-04-30 08:31:00,54.5,52.5,29.89,NNE,30,4.6,4.6,93,0.00,OVC,,0.00,WeatherDisplay:10.37,2013-04-30 12:31:00,
2013-04-30 08:36:00,54.9,52.9,29.89,NNE,30,4.6,4.6,93,0.00,OVC,,0.00,WeatherDisplay:10.37,2013-04-30 12:36:00,
2013-04-30 08:41:00,55.0,53.1,29.89,NNE,30,4.6,4.6,93,0.00,OVC,,0.00,WeatherDisplay:10.37,2013-04-30 12:41:00,
2013-04-30 08:46:00,55.2,53.2,29.90,NNE,30,4.6,4.6,93,0.00,OVC,,0.00,WeatherDisplay:10.37,2013-04-30 12:46:00,
2013-04-30 08:51:00,55.6,53.6,29.89,NNE,30,4.6,4.6,93,0.00,OVC,,0.00,WeatherDisplay:10.37,2013-04-30 12:51:00,
2013-04-30 08:56:00,55.8,53.8,29.90,NNE,30,4.6,4.6,93,0.00,OVC,,0.00,WeatherDisplay:10.37,2013-04-30 12:56:00,
2013-04-30 09:01:00,55.9,53.9,29.90,NNE,30,4.6,4.6,93,0.00,OVC,,0.00,WeatherDisplay:10.37,2013-04-30 13:01:00,
2013-04-30 09:06:00,56.1,54.1,29.90,NNE,30,4.6,4.6,93,0.00,OVC,,0.00,WeatherDisplay:10.37,2013-04-30 13:06:00,
2013-04-30 09:11:00,56.3,54.3,29.90,NNE,30,4.6,4.6,93,0.00,OVC,,0.00,WeatherDisplay:10.37,2013-04-30 13:11:00,
2013-04-30 09:16:00,56.5,54.5,29.90,East,80,4.6,4.6,93,0.00,OVC,,0.00,WeatherDisplay:10.37,2013-04-30 13:16:00,
2013-04-30 09:21:00,56.5,54.5,29.90,East,80,3.5,3.5,93,0.00,OVC,,0.00,WeatherDisplay:10.37,2013-04-30 13:21:00,
2013-04-30 09:26:00,56.8,54.5,29.90,East,80,3.5,3.5,92,0.00,OVC,,0.00,WeatherDisplay:10.37,2013-04-30 13:26:00,
2013-04-30 09:31:00,57.0,54.7,29.90,East,80,3.5,3.5,92,0.00,OVC,,0.00,WeatherDisplay:10.37,2013-04-30 13:31:00,
2013-04-30 09:36:00,57.4,55.1,29.91,East,80,3.5,3.5,92,0.00,OVC,,0.00,WeatherDisplay:10.37,2013-04-30 13:36:00,
2013-04-30 09:41:00,57.7,55.4,29.91,East,80,3.5,3.5,92,0.00,OVC,,0.00,WeatherDisplay:10.37,2013-04-30 13:41:00,
2013-04-30 09:46:00,57.9,55.6,29.91,East,80,3.5,3.5,92,0.00,OVC,,0.00,WeatherDisplay:10.37,2013-04-30 13:46:00,
2013-04-30 09:51:00,58.1,55.8,29.90,East,80,3.5,3.5,92,0.00,OVC,,0.00,WeatherDisplay:10.37,2013-04-30 13:51:00,
2013-04-30 09:56:00,58.6,56.3,29.91,East,80,3.5,3.5,92,0.00,OVC,,0.00,WeatherDisplay:10.37,2013-04-30 13:56:00,
2013-04-30 10:01:00,58.8,56.5,29.91,East,80,3.5,3.5,92,0.00,OVC,,0.00,WeatherDisplay:10.37,2013-04-30 14:01:00,
2013-04-30 10:06:00,58.8,56.5,29.91,East,80,3.5,3.5,92,0.00,OVC,,0.00,WeatherDisplay:10.37,2013-04-30 14:06:00,
2013-04-30 10:11:00,59.4,57.0,29.91,East,80,3.5,3.5,92,0.00,OVC,,0.00,WeatherDisplay:10.37,2013-04-30 14:11:00,
2013-04-30 10:16:00,59.5,56.9,29.91,East,80,4.6,4.6,91,0.00,OVC,,0.00,WeatherDisplay:10.37,2013-04-30 14:16:00,
2013-04-30 10:21:00,59.9,57.3,29.91,East,80,4.6,4.6,91,0.00,OVC,,0.00,WeatherDisplay:10.37,2013-04-30 14:21:00,
2013-04-30 10:26:00,60.1,57.4,29.91,East,80,4.6,4.6,91,0.00,OVC,,0.00,WeatherDisplay:10.37,2013-04-30 14:26:00,
2013-04-30 10:31:00,60.6,58.0,29.91,East,80,4.6,4.6,91,0.00,OVC,,0.00,WeatherDisplay:10.37,2013-04-30 14:31:00,
2013-04-30 10:36:00,61.0,58.3,29.91,East,80,4.6,4.6,91,0.00,OVC,,0.00,WeatherDisplay:10.37,2013-04-30 14:36:00,
2013-04-30 10:41:00,61.3,58.7,29.91,East,80,4.6,4.6,91,0.00,OVC,,0.00,WeatherDisplay:10.37,2013-04-30 14:41:00,
2013-04-30 10:46:00,61.5,58.9,29.91,East,80,4.6,4.6,91,0.00,OVC,,0.00,WeatherDisplay:10.37,2013-04-30 14:46:00,
2013-04-30 10:51:00,61.5,58.9,29.91,East,80,4.6,4.6,91,0.00,OVC,,0.00,WeatherDisplay:10.37,2013-04-30 14:51:00,
2013-04-30 10:56:00,61.9,58.9,29.91,East,80,4.6,4.6,90,0.00,OVC,,0.00,WeatherDisplay:10.37,2013-04-30 14:56:00,
2013-04-30 11:01:00,62.2,59.3,29.91,East,80,4.6,4.6,90,0.00,OVC,,0.00,WeatherDisplay:10.37,2013-04-30 15:01:00,
2013-04-30 11:06:00,62.4,59.4,29.91,East,80,4.6,4.6,90,0.00,OVC,,0.00,WeatherDisplay:10.37,2013-04-30 15:06:00,
2013-04-30 11:11:00,62.8,59.8,29.91,East,80,4.6,4.6,90,0.00,OVC,,0.00,WeatherDisplay:10.37,2013-04-30 15:11:00,
2013-04-30 11:16:00,63.3,60.3,29.91,East,80,4.6,4.6,90,0.00,OVC,,0.00,WeatherDisplay:10.37,2013-04-30 15:16:00,
2013-04-30 11:21:00,64.0,61.0,29.91,East,80,4.6,4.6,90,0.00,OVC,,0.00,WeatherDisplay:10.37,2013-04-30 15:21:00,
2013-04-30 11:26:00,64.2,61.2,29.91,East,80,4.6,4.6,90,0.00,OVC,,0.00,WeatherDisplay:10.37,2013-04-30 15:26:00,
2013-04-30 11:31:00,64.6,60.9,29.91,East,80,4.6,4.6,88,0.00,OVC,,0.00,WeatherDisplay:10.37,2013-04-30 15:31:00,
2013-04-30 11:36:00,64.8,61.1,29.91,East,80,4.6,4.6,88,0.00,OVC,,0.00,WeatherDisplay:10.37,2013-04-30 15:36:00,
2013-04-30 11:41:00,65.1,61.5,29.92,East,80,4.6,4.6,88,0.00,OVC,,0.00,WeatherDisplay:10.37,2013-04-30 15:41:00,
2013-04-30 11:46:00,65.7,61.7,29.91,East,80,4.6,4.6,87,0.00,OVC,,0.00,WeatherDisplay:10.37,2013-04-30 15:46:00,
2013-04-30 11:51:00,66.0,62.0,29.91,East,80,4.6,4.6,87,0.00,OVC,,0.00,WeatherDisplay:10.37,2013-04-30 15:51:00,
2013-04-30 11:56:00,66.0,62.0,29.91,East,80,4.6,4.6,87,0.00,OVC,,0.00,WeatherDisplay:10.37,2013-04-30 15:56:00,
2013-04-30 12:01:00,66.4,62.1,29.91,East,80,4.6,4.6,86,0.00,OVC,,0.00,WeatherDisplay:10.37,2013-04-30 16:01:00,
2013-04-30 12:06:00,66.7,62.4,29.91,East,80,4.6,4.6,86,0.00,OVC,,0.00,WeatherDisplay:10.37,2013-04-30 16:06:00,
2013-04-30 12:11:00,67.1,62.4,29.91,East,80,4.6,4.6,85,0.00,OVC,,0.00,WeatherDisplay:10.37,2013-04-30 16:11:00,
2013-04-30 12:16:00,67.5,62.5,29.91,East,80,4.6,4.6,84,0.00,OVC,,0.00,WeatherDisplay:10.37,2013-04-30 16:16:00,
2013-04-30 12:21:00,67.8,62.5,29.91,East,80,4.6,4.6,83,0.00,OVC,,0.00,WeatherDisplay:10.37,2013-04-30 16:21:00,
2013-04-30 12:26:00,68.7,63.0,29.91,East,80,4.6,4.6,82,0.00,OVC,,0.00,WeatherDisplay:10.37,2013-04-30 16:26:00,
2013-04-30 12:31:00,69.4,63.4,29.91,East,80,4.6,4.6,81,0.00,OVC,,0.00,WeatherDisplay:10.37,2013-04-30 16:31:00,
2013-04-30 12:36:00,69.8,63.3,29.90,East,80,4.6,4.6,80,0.00,OVC,,0.00,WeatherDisplay:10.37,2013-04-30 16:36:00,
2013-04-30 12:41:00,70.3,63.2,29.90,East,80,4.6,4.6,78,0.00,OVC,,0.00,WeatherDisplay:10.37,2013-04-30 16:41:00,
2013-04-30 12:46:00,70.5,63.3,29.90,East,80,4.6,0.0,78,0.00,SCT,OVC,0.00,WeatherDisplay:10.37,2013-04-30 16:46:00,
2013-04-30 12:51:00,71.2,63.7,29.90,East,80,0.0,0.0,77,0.00,SCT,OVC,0.00,WeatherDisplay:10.37,2013-04-30 16:51:00,
2013-04-30 12:56:00,71.4,63.1,29.89,East,80,0.0,0.0,75,0.00,SCT,OVC,0.00,WeatherDisplay:10.37,2013-04-30 16:56:00,
2013-04-30 13:01:00,72.0,63.2,29.89,East,80,0.0,0.0,74,0.00,SCT,OVC,0.00,WeatherDisplay:10.37,2013-04-30 17:01:00,
2013-04-30 13:06:00,72.7,63.1,29.89,East,80,0.0,0.0,72,0.00,SCT,OVC,0.00,WeatherDisplay:10.37,2013-04-30 17:06:00,
2013-04-30 13:11:00,73.0,63.5,29.88,East,80,0.0,0.0,72,0.00,SCT,OVC,0.00,WeatherDisplay:10.37,2013-04-30 17:11:00,
2013-04-30 13:16:00,73.2,62.8,29.88,East,80,0.0,0.0,70,0.00,FEW,OVC,0.00,WeatherDisplay:10.37,2013-04-30 17:16:00,
2013-04-30 13:21:00,73.8,63.4,29.88,East,80,0.0,0.0,70,0.00,FEW,OVC,0.00,WeatherDisplay:10.37,2013-04-30 17:21:00,
2013-04-30 13:26:00,74.1,63.3,29.88,East,80,0.0,0.0,69,0.00,FEW,OVC,0.00,WeatherDisplay:10.37,2013-04-30 17:26:00,
2013-04-30 13:31:00,74.5,63.6,29.88,East,80,0.0,0.0,69,0.00,FEW,OVC,0.00,WeatherDisplay:10.37,2013-04-30 17:31:00,
2013-04-30 13:36:00,74.7,63.0,29.87,East,80,0.0,0.0,67,0.00,FEW,OVC,0.00,WeatherDisplay:10.37,2013-04-30 17:36:00,
2013-04-30 13:41:00,74.5,62.8,29.88,East,80,0.0,0.0,67,0.00,FEW,OVC,0.00,WeatherDisplay:10.37,2013-04-30 17:41:00,
2013-04-30 13:46:00,74.5,63.2,29.87,East,80,0.0,0.0,68,0.00,FEW,OVC,0.00,WeatherDisplay:10.37,2013-04-30 17:46:00,
2013-04-30 13:51:00,74.8,62.7,29.87,East,80,0.0,0.0,66,0.00,FEW,OVC,0.00,WeatherDisplay:10.37,2013-04-30 17:51:00,
2013-04-30 13:56:00,75.0,63.3,29.87,East,80,0.0,0.0,67,0.00,FEW,OVC,0.00,WeatherDisplay:10.37,2013-04-30 17:56:00,
2013-04-30 14:01:00,75.6,63.8,29.86,East,80,0.0,0.0,67,0.00,FEW,OVC,0.00,WeatherDisplay:10.37,2013-04-30 18:01:00,
2013-04-30 14:06:00,76.1,63.5,29.87,East,80,0.0,0.0,65,0.00,FEW,OVC,0.00,WeatherDisplay:10.37,2013-04-30 18:06:00,
2013-04-30 14:11:00,76.3,63.2,29.87,East,80,0.0,0.0,64,0.00,FEW,OVC,0.00,WeatherDisplay:10.37,2013-04-30 18:11:00,
2013-04-30 14:16:00,76.6,63.5,29.87,East,90,6.9,6.9,64,0.00,SCT,OVC,0.00,WeatherDisplay:10.37,2013-04-30 18:16:00,
2013-04-30 14:21:00,76.8,63.3,29.87,East,90,6.9,6.9,63,0.00,SCT,OVC,0.00,WeatherDisplay:10.37,2013-04-30 18:21:00,
2013-04-30 14:26:00,76.6,61.7,29.87,East,90,6.9,6.9,60,0.00,SCT,OVC,0.00,WeatherDisplay:10.37,2013-04-30 18:26:00,
2013-04-30 14:31:00,76.3,62.3,29.87,East,90,6.9,6.9,62,0.00,SCT,OVC,0.00,WeatherDisplay:10.37,2013-04-30 18:31:00,
2013-04-30 14:36:00,76.5,62.5,29.87,East,90,6.9,6.9,62,0.00,SCT,OVC,0.00,WeatherDisplay:10.37,2013-04-30 18:36:00,
2013-04-30 14:41:00,76.3,60.9,29.87,East,90,6.9,6.9,59,0.00,SCT,OVC,0.00,WeatherDisplay:10.37,2013-04-30 18:41:00,
2013-04-30 14:46:00,76.8,61.9,29.87,East,90,6.9,6.9,60,0.00,SCT,OVC,0.00,WeatherDisplay:10.37,2013-04-30 18:46:00,
2013-04-30 14:51:00,77.2,62.2,29.87,East,90,6.9,6.9,60,0.00,SCT,OVC,0.00,WeatherDisplay:10.37,2013-04-30 18:51:00,
2013-04-30 14:56:00,77.5,61.6,29.87,East,90,6.9,6.9,58,0.00,SCT,OVC,0.00,WeatherDisplay:10.37,2013-04-30 18:56:00,
2013-04-30 15:01:00,77.7,61.3,29.87,East,90,6.9,6.9,57,0.00,SCT,OVC,0.00,WeatherDisplay:10.37,2013-04-30 19:01:00,
2013-04-30 15:06:00,78.1,61.6,29.87,East,90,6.9,6.9,57,0.00,SCT,OVC,0.00,WeatherDisplay:10.37,2013-04-30 19:06:00,
2013-04-30 15:11:00,78.1,61.6,29.87,East,90,6.9,6.9,57,0.00,SCT,OVC,0.00,WeatherDisplay:10.37,2013-04-30 19:11:00,
2013-04-30 15:16:00,78.4,61.4,29.87,South,170,6.9,6.9,56,0.00,FEW,OVC,0.00,WeatherDisplay:10.37,2013-04-30 19:16:00,
2013-04-30 15:21:00,78.4,61.9,29.87,South,170,5.8,5.8,57,0.00,FEW,OVC,0.00,WeatherDisplay:10.37,2013-04-30 19:21:00,
2013-04-30 15:26:00,78.6,61.1,29.87,South,170,5.8,5.8,55,0.00,FEW,OVC,0.00,WeatherDisplay:10.37,2013-04-30 19:26:00,
2013-04-30 15:31:00,78.6,60.1,29.87,South,170,5.8,5.8,53,0.00,FEW,OVC,0.00,WeatherDisplay:10.37,2013-04-30 19:31:00,
2013-04-30 15:36:00,78.6,60.1,29.87,South,170,5.8,5.8,53,0.00,FEW,OVC,0.00,WeatherDisplay:10.37,2013-04-30 19:36:00,
2013-04-30 15:41:00,78.4,60.4,29.87,South,170,5.8,5.8,54,0.00,FEW,OVC,0.00,WeatherDisplay:10.37,2013-04-30 19:41:00,
2013-04-30 15:46:00,78.3,60.2,29.87,South,170,5.8,5.8,54,0.00,FEW,OVC,0.00,WeatherDisplay:10.37,2013-04-30 19:46:00,
2013-04-30 15:51:00,78.4,60.4,29.88,South,170,5.8,5.8,54,0.00,FEW,OVC,0.00,WeatherDisplay:10.37,2013-04-30 19:51:00,
2013-04-30 15:56:00,78.4,59.9,29.88,South,170,5.8,5.8,53,0.00,FEW,OVC,0.00,WeatherDisplay:10.37,2013-04-30 19:56:00,
2013-04-30 16:01:00,78.4,59.4,29.87,South,170,5.8,5.8,52,0.00,FEW,OVC,0.00,WeatherDisplay:10.37,2013-04-30 20:01:00,
2013-04-30 16:06:00,78.6,60.6,29.87,South,170,5.8,5.8,54,0.00,FEW,OVC,0.00,WeatherDisplay:10.37,2013-04-30 20:06:00,
2013-04-30 16:11:00,79.0,60.4,29.87,South,170,5.8,5.8,53,0.00,FEW,OVC,0.00,WeatherDisplay:10.37,2013-04-30 20:11:00,
2013-04-30 16:16:00,79.0,59.9,29.87,South,170,5.8,5.8,52,0.00,SCT,OVC,0.00,WeatherDisplay:10.37,2013-04-30 20:16:00,
2013-04-30 16:21:00,79.2,60.6,29.87,South,170,5.8,5.8,53,0.00,SCT,OVC,0.00,WeatherDisplay:10.37,2013-04-30 20:21:00,
2013-04-30 16:26:00,79.2,60.0,29.87,South,170,5.8,5.8,52,0.00,SCT,OVC,0.00,WeatherDisplay:10.37,2013-04-30 20:26:00,
2013-04-30 16:31:00,79.2,60.0,29.86,South,170,5.8,5.8,52,0.00,SCT,OVC,0.00,WeatherDisplay:10.37,2013-04-30 20:31:00,
2013-04-30 16:36:00,78.4,59.4,29.86,South,170,5.8,5.8,52,0.00,SCT,OVC,0.00,WeatherDisplay:10.37,2013-04-30 20:36:00,
2013-04-30 16:41:00,78.1,59.0,29.86,South,170,5.8,5.8,52,0.00,SCT,OVC,0.00,WeatherDisplay:10.37,2013-04-30 20:41:00,
2013-04-30 16:46:00,77.7,59.7,29.86,South,170,5.8,5.8,54,0.00,SCT,OVC,0.00,WeatherDisplay:10.37,2013-04-30 20:46:00,
2013-04-30 16:51:00,77.7,59.7,29.86,South,170,5.8,5.8,54,0.00,SCT,OVC,0.00,WeatherDisplay:10.37,2013-04-30 20:51:00,
2013-04-30 16:56:00,77.7,58.7,29.86,South,170,5.8,5.8,52,0.00,SCT,OVC,0.00,WeatherDisplay:10.37,2013-04-30 20:56:00,
2013-04-30 17:01:00,77.7,58.7,29.86,South,170,5.8,5.8,52,0.00,SCT,OVC,0.00,WeatherDisplay:10.37,2013-04-30 21:01:00,
2013-04-30 17:06:00,77.7,59.7,29.86,South,170,5.8,5.8,54,0.00,SCT,OVC,0.00,WeatherDisplay:10.37,2013-04-30 21:06:00,
2013-04-30 17:11:00,77.5,59.6,29.86,South,170,5.8,5.8,54,0.00,SCT,OVC,0.00,WeatherDisplay:10.37,2013-04-30 21:11:00,
2013-04-30 17:16:00,77.5,59.6,29.86,South,170,5.8,0.0,54,0.00,CLR,OVC,0.00,WeatherDisplay:10.37,2013-04-30 21:16:00,
2013-04-30 17:21:00,77.4,59.9,29.86,South,170,0.0,0.0,55,0.00,CLR,OVC,0.00,WeatherDisplay:10.37,2013-04-30 21:21:00,
2013-04-30 17:26:00,77.2,59.2,29.86,South,170,0.0,0.0,54,0.00,CLR,OVC,0.00,WeatherDisplay:10.37,2013-04-30 21:26:00,
2013-04-30 17:31:00,76.8,59.4,29.86,South,170,0.0,0.0,55,0.00,CLR,OVC,0.00,WeatherDisplay:10.37,2013-04-30 21:31:00,
2013-04-30 17:36:00,76.6,58.7,29.86,South,170,0.0,0.0,54,0.00,CLR,OVC,0.00,WeatherDisplay:10.37,2013-04-30 21:36:00,
2013-04-30 17:41:00,76.3,59.9,29.86,South,170,0.0,0.0,57,0.00,CLR,OVC,0.00,WeatherDisplay:10.37,2013-04-30 21:41:00,
2013-04-30 17:46:00,75.9,59.1,29.86,South,170,0.0,0.0,56,0.00,CLR,OVC,0.00,WeatherDisplay:10.37,2013-04-30 21:46:00,
2013-04-30 17:51:00,75.7,58.9,29.86,South,170,0.0,0.0,56,0.00,CLR,OVC,0.00,WeatherDisplay:10.37,2013-04-30 21:51:00,
2013-04-30 17:56:00,75.6,58.3,29.86,South,170,0.0,0.0,55,0.00,CLR,OVC,0.00,WeatherDisplay:10.37,2013-04-30 21:56:00,
2013-04-30 18:01:00,75.6,58.3,29.86,South,170,0.0,0.0,55,0.00,CLR,OVC,0.00,WeatherDisplay:10.37,2013-04-30 22:01:00,
2013-04-30 18:06:00,75.0,58.8,29.86,South,170,0.0,0.0,57,0.00,CLR,OVC,0.00,WeatherDisplay:10.37,2013-04-30 22:06:00,
2013-04-30 18:11:00,75.0,58.8,29.86,South,170,0.0,0.0,57,0.00,CLR,OVC,0.00,WeatherDisplay:10.37,2013-04-30 22:11:00,
2013-04-30 18:16:00,74.8,59.1,29.86,SE,130,6.9,6.9,58,0.00,CLR,OVC,0.00,WeatherDisplay:10.37,2013-04-30 22:16:00,
2013-04-30 18:21:00,74.5,58.7,29.86,SE,130,6.9,6.9,58,0.00,CLR,OVC,0.00,WeatherDisplay:10.37,2013-04-30 22:21:00,
2013-04-30 18:26:00,74.3,58.6,29.86,SE,130,6.9,6.9,58,0.00,CLR,OVC,0.00,WeatherDisplay:10.37,2013-04-30 22:26:00,
2013-04-30 18:31:00,74.1,58.9,29.87,SE,130,6.9,6.9,59,0.00,CLR,OVC,0.00,WeatherDisplay:10.37,2013-04-30 22:31:00,
2013-04-30 18:36:00,74.1,58.9,29.87,SE,130,6.9,6.9,59,0.00,CLR,OVC,0.00,WeatherDisplay:10.37,2013-04-30 22:36:00,
2013-04-30 18:41:00,73.6,59.8,29.87,SE,130,6.9,6.9,62,0.00,CLR,OVC,0.00,WeatherDisplay:10.37,2013-04-30 22:41:00,
2013-04-30 18:46:00,73.2,59.4,29.87,SE,130,6.9,6.9,62,0.00,CLR,OVC,0.00,WeatherDisplay:10.37,2013-04-30 22:46:00,
2013-04-30 18:51:00,73.0,59.7,29.86,SE,130,6.9,6.9,63,0.00,CLR,OVC,0.00,WeatherDisplay:10.37,2013-04-30 22:51:00,
2013-04-30 18:56:00,72.7,59.4,29.86,SE,130,6.9,6.9,63,0.00,CLR,OVC,0.00,WeatherDisplay:10.37,2013-04-30 22:56:00,
2013-04-30 19:01:00,72.5,59.6,29.87,SE,130,6.9,6.9,64,0.00,CLR,OVC,0.00,WeatherDisplay:10.37,2013-04-30 23:01:00,
2013-04-30 19:06:00,72.3,59.5,29.86,SE,130,6.9,6.9,64,0.00,CLR,OVC,0.00,WeatherDisplay:10.37,2013-04-30 23:06:00,
2013-04-30 19:11:00,72.0,59.6,29.87,SE,130,6.9,6.9,65,0.00,CLR,OVC,0.00,WeatherDisplay:10.37,2013-04-30 23:11:00,
2013-04-30 19:16:00,71.8,59.8,29.87,ESE,110,6.9,6.9,66,0.00,CLR,OVC,0.00,WeatherDisplay:10.37,2013-04-30 23:16:00,
2013-04-30 19:21:00,71.8,59.8,29.86,ESE,110,4.6,4.6,66,0.00,CLR,OVC,0.00,WeatherDisplay:10.37,2013-04-30 23:21:00,
2013-04-30 19:26:00,71.4,59.9,29.86,ESE,110,4.6,4.6,67,0.00,CLR,OVC,0.00,WeatherDisplay:10.37,2013-04-30 23:26:00,
2013-04-30 19:31:00,71.2,60.1,29.86,ESE,110,4.6,4.6,68,0.00,CLR,OVC,0.00,WeatherDisplay:10.37,2013-04-30 23:31:00,
2013-04-30 19:36:00,70.9,59.8,29.86,ESE,110,4.6,4.6,68,0.00,CLR,OVC,0.00,WeatherDisplay:10.37,2013-04-30 23:36:00,
2013-04-30 19:41:00,70.5,59.9,29.87,ESE,110,4.6,4.6,69,0.00,CLR,OVC,0.00,WeatherDisplay:10.37,2013-04-30 23:41:00,
2013-04-30 19:46:00,70.3,59.7,29.87,ESE,110,4.6,4.6,69,0.00,CLR,OVC,0.00,WeatherDisplay:10.37,2013-04-30 23:46:00,
2013-04-30 19:51:00,70.3,60.1,29.87,ESE,110,4.6,4.6,70,0.00,CLR,OVC,0.00,WeatherDisplay:10.37,2013-04-30 23:51:00,
2013-04-30 19:56:00,70.0,59.7,29.87,ESE,110,4.6,4.6,70,0.00,CLR,OVC,0.00,WeatherDisplay:10.37,2013-04-30 23:56:00,
2013-04-30 20:01:00,69.6,59.4,29.88,ESE,110,4.6,4.6,70,0.00,CLR,OVC,0.00,WeatherDisplay:10.37,2013-05-01 00:01:00,
2013-04-30 20:06:00,69.4,59.2,29.88,ESE,110,4.6,4.6,70,0.00,CLR,OVC,0.00,WeatherDisplay:10.37,2013-05-01 00:06:00,
2013-04-30 20:11:00,68.9,58.7,29.88,ESE,110,4.6,4.6,70,0.00,CLR,OVC,0.00,WeatherDisplay:10.37,2013-05-01 00:11:00,
2013-04-30 20:16:00,68.7,58.5,29.88,East,100,4.6,4.6,70,0.00,CLR,OVC,0.00,WeatherDisplay:10.37,2013-05-01 00:16:00,
2013-04-30 20:21:00,68.5,58.8,29.88,East,100,4.6,4.6,71,0.00,CLR,OVC,0.00,WeatherDisplay:10.37,2013-05-01 00:21:00,
2013-04-30 20:26:00,68.2,58.4,29.88,East,100,4.6,4.6,71,0.00,CLR,OVC,0.00,WeatherDisplay:10.37,2013-05-01 00:26:00,
2013-04-30 20:31:00,67.8,58.5,29.88,East,100,4.6,4.6,72,0.00,CLR,OVC,0.00,WeatherDisplay:10.37,2013-05-01 00:31:00,
2013-04-30 20:36:00,67.3,58.3,29.88,East,100,4.6,4.6,73,0.00,CLR,OVC,0.00,WeatherDisplay:10.37,2013-05-01 00:36:00,
2013-04-30 20:41:00,67.3,58.3,29.88,East,100,4.6,4.6,73,0.00,CLR,OVC,0.00,WeatherDisplay:10.37,2013-05-01 00:41:00,
2013-04-30 20:46:00,66.7,57.8,29.88,East,100,4.6,4.6,73,0.00,CLR,OVC,0.00,WeatherDisplay:10.37,2013-05-01 00:46:00,
2013-04-30 20:51:00,66.4,57.5,29.88,East,100,4.6,4.6,73,0.00,CLR,OVC,0.00,WeatherDisplay:10.37,2013-05-01 00:51:00,
2013-04-30 20:56:00,66.2,57.3,29.88,East,100,4.6,4.6,73,0.00,CLR,OVC,0.00,WeatherDisplay:10.37,2013-05-01 00:56:00,
2013-04-30 21:01:00,65.8,56.9,29.89,East,100,4.6,4.6,73,0.00,CLR,OVC,0.00,WeatherDisplay:10.37,2013-05-01 01:01:00,
2013-04-30 21:06:00,65.5,56.6,29.89,East,100,4.6,4.6,73,0.00,CLR,OVC,0.00,WeatherDisplay:10.37,2013-05-01 01:06:00,
2013-04-30 21:11:00,65.1,57.7,29.89,East,100,4.6,4.6,77,0.00,CLR,OVC,0.00,WeatherDisplay:10.37,2013-05-01 01:11:00,
2013-04-30 21:16:00,65.1,57.7,29.89,East,100,4.6,5.8,77,0.00,CLR,OVC,0.00,WeatherDisplay:10.37,2013-05-01 01:16:00,
2013-04-30 21:21:00,64.9,57.6,29.89,East,100,5.8,5.8,77,0.00,CLR,OVC,0.00,WeatherDisplay:10.37,2013-05-01 01:21:00,
2013-04-30 21:26:00,64.6,57.6,29.91,East,100,5.8,5.8,78,0.00,CLR,OVC,0.00,WeatherDisplay:10.37,2013-05-01 01:26:00,
2013-04-30 21:31:00,64.6,57.6,29.91,East,100,5.8,5.8,78,0.00,CLR,OVC,0.00,WeatherDisplay:10.37,2013-05-01 01:31:00,
2013-04-30 21:36:00,64.2,57.6,29.91,East,100,5.8,5.8,79,0.00,CLR,OVC,0.00,WeatherDisplay:10.37,2013-05-01 01:36:00,
2013-04-30 21:41:00,64.2,57.6,29.91,East,100,5.8,5.8,79,0.00,CLR,OVC,0.00,WeatherDisplay:10.37,2013-05-01 01:41:00,
2013-04-30 21:46:00,64.0,57.7,29.91,East,100,5.8,5.8,80,0.00,CLR,OVC,0.00,WeatherDisplay:10.37,2013-05-01 01:46:00,
2013-04-30 21:51:00,63.9,57.6,29.91,East,100,5.8,5.8,80,0.00,CLR,OVC,0.00,WeatherDisplay:10.37,2013-05-01 01:51:00,
2013-04-30 21:56:00,63.7,57.4,29.91,East,100,5.8,5.8,80,0.00,CLR,OVC,0.00,WeatherDisplay:10.37,2013-05-01 01:56:00,
2013-04-30 22:01:00,63.7,57.7,29.92,East,100,5.8,5.8,81,0.00,CLR,OVC,0.00,WeatherDisplay:10.37,2013-05-01 02:01:00,
2013-04-30 22:06:00,63.5,57.6,29.92,East,100,5.8,5.8,81,0.00,CLR,OVC,0.00,WeatherDisplay:10.37,2013-05-01 02:06:00,
2013-04-30 22:11:00,63.5,57.9,29.93,East,100,5.8,5.8,82,0.00,CLR,OVC,0.00,WeatherDisplay:10.37,2013-05-01 02:11:00,
2013-04-30 22:16:00,63.3,57.7,29.93,ENE,70,5.8,6.9,82,0.00,CLR,OVC,0.00,WeatherDisplay:10.37,2013-05-01 02:16:00,
2013-04-30 22:21:00,63.3,57.7,29.93,ENE,70,6.9,6.9,82,0.00,CLR,OVC,0.00,WeatherDisplay:10.37,2013-05-01 02:21:00,
2013-04-30 22:26:00,63.1,57.6,29.93,ENE,70,6.9,6.9,82,0.00,CLR,OVC,0.00,WeatherDisplay:10.37,2013-05-01 02:26:00,
2013-04-30 22:31:00,63.1,57.9,29.93,ENE,70,6.9,6.9,83,0.00,CLR,OVC,0.00,WeatherDisplay:10.37,2013-05-01 02:31:00,
2013-04-30 22:36:00,63.1,57.9,29.93,ENE,70,6.9,6.9,83,0.00,CLR,OVC,0.00,WeatherDisplay:10.37,2013-05-01 02:36:00,
2013-04-30 22:41:00,63.1,58.2,29.93,ENE,70,6.9,6.9,84,0.00,CLR,OVC,0.00,WeatherDisplay:10.37,2013-05-01 02:41:00,
2013-04-30 22:46:00,63.1,58.2,29.94,ENE,70,6.9,6.9,84,0.00,CLR,OVC,0.00,WeatherDisplay:10.37,2013-05-01 02:46:00,
2013-04-30 22:51:00,63.1,57.9,29.94,ENE,70,6.9,6.9,83,0.00,CLR,OVC,0.00,WeatherDisplay:10.37,2013-05-01 02:51:00,
2013-04-30 22:56:00,63.0,57.7,29.93,ENE,70,6.9,6.9,83,0.00,CLR,OVC,0.00,WeatherDisplay:10.37,2013-05-01 02:56:00,
2013-04-30 23:01:00,63.0,58.0,29.94,ENE,70,6.9,6.9,84,0.00,CLR,OVC,0.00,WeatherDisplay:10.37,2013-05-01 03:01:00,
2013-04-30 23:06:00,62.8,57.9,29.94,ENE,70,6.9,6.9,84,0.00,CLR,OVC,0.00,WeatherDisplay:10.37,2013-05-01 03:06:00,
2013-04-30 23:11:00,62.8,57.9,29.94,ENE,70,6.9,6.9,84,0.00,CLR,OVC,0.00,WeatherDisplay:10.37,2013-05-01 03:11:00,
2013-04-30 23:16:00,62.8,58.2,29.94,East,80,6.9,6.9,85,0.00,CLR,OVC,0.00,WeatherDisplay:10.37,2013-05-01 03:16:00,
2013-04-30 23:21:00,62.4,57.8,29.94,East,80,4.6,4.6,85,0.00,CLR,OVC,0.00,WeatherDisplay:10.37,2013-05-01 03:21:00,
2013-04-30 23:26:00,62.4,57.8,29.95,East,80,4.6,4.6,85,0.00,CLR,OVC,0.00,WeatherDisplay:10.37,2013-05-01 03:26:00,
2013-04-30 23:31:00,62.4,57.8,29.95,East,80,4.6,4.6,85,0.00,CLR,OVC,0.00,WeatherDisplay:10.37,2013-05-01 03:31:00,
2013-04-30 23:36:00,62.4,57.8,29.95,East,80,4.6,4.6,85,0.00,CLR,OVC,0.00,WeatherDisplay:10.37,2013-05-01 03:36:00,
2013-04-30 23:41:00,62.4,57.8,29.95,East,80,4.6,4.6,85,0.00,CLR,OVC,0.00,WeatherDisplay:10.37,2013-05-01 03:41:00,
2013-04-30 23:46:00,62.2,57.7,29.95,East,80,4.6,4.6,85,0.00,CLR,OVC,0.00,WeatherDisplay:10.37,2013-05-01 03:46:00,
2013-04-30 23:51:00,62.2,57.7,29.95,East,80,4.6,4.6,85,0.00,CLR,OVC,0.00,WeatherDisplay:10.37,2013-05-01 03:51:00,
2013-04-30 23:56:00,62.1,57.8,29.95,East,80,4.6,4.6,86,0.00,CLR,OVC,0.00,WeatherDisplay:10.37,2013-05-01 03:56:00,